Погода в Малой Таябе

Россия / Чувашская Республика     55°13′04″N   47°57′44″E
темп.,
°C
ветер,
м/с
пор.,
м/с
влажн.,
%
обл.,
%
осадки,
мм/ч
давл.,
гПа
погр.,
м
17 апреля, сб
сб1700:00+8св5117563 0.0 1024300
03:00+6св5107417 0.0 1025238
06:00+5св511704 0.0 1026281
09:00+9всв710565 0.0 1026550
12:00+13всв68461 0.0 1025968
15:00+14всв67350 0.0 10241149
18:00+11всв48420 0.0 1024292
21:00+7св511652 0.0 1024283
18 апреля, вс
вс1800:00+5св512710 0.0 1023275
03:00+3св49800 0.0 1024200
06:00+4св510790 0.0 1024266
09:00+9всв69560 0.0 1023782
12:00+12всв67425 0.0 10231380
15:00+13всв77405 0.0 10231670
18:00+11всв6105436 0.0 1023655
21:00+6всв6126948 0.0 1026617
19 апреля, пн
пн1900:00+4всв6135383 0.0 1027466
03:00+2всв51263100 0.0 1028463
06:00+2всв71364100 0.0 1029606
09:00+4в81148100 0.0 1030924
12:00+6в91139100 0.0 10301294
15:00+7в91038100 0.0 10301454
18:00+5всв81340100 0.0 1030783
21:00+4в7144599 0.0 1031496
20 апреля, вт
вт2000:00+2в715528 0.0 1031423
03:000в614595 0.0 1032351
06:00+1в613620 0.0 1032480
09:00+5вюв811410 0.0 1033887
12:00+8юв8103327 0.0 10331279
15:00+10вюв9112915 0.0 10301464
18:00+8вюв7123669 0.0 1029874
21:00+6юв81543100 0.0 1029695
21 апреля, ср
ср2100:00+4юв81647100 0.0 1027638
03:00+4юв9184899 0.0 1027711
06:00+4юв91851100 0.0 1025795
09:00+4ююв101859100 0.3 1025806
12:00+3ююв111969100 1.9 1025813
15:00+3ююв101879100 3.1 1025813
18:00+3ююв91887100 0.6 1026742
21:00+3ююв91689100 1.1 1026685